Content
SEND FEEDBACK

Daily
Averages
Monthly
Summary
Sweden

ABY, SWEDEN


Home > Europe > Sweden
Elevation: 85 feet     Latitude: 58 36N     Longitude: 016 06E

WEATHER
 
SELECT A DAY
Number of Records: 236,055;   Date Range: 1/10/97 - 11/22/14
 
SHARE

PRINT THIS DATA

[ ← Previous Day ]
WEATHER ALMANAC - FEBRUARY 13, 2013
[ Next Day → ]
[ °C ]   °F
Weather ElementAverageHighLow
Temperature25 °F28.4 °F (8:20 pm)15.8 °F (5:20 am)
Dewpoint24.5 °F28.4 °F (9:50 pm)14 °F (5:20 am)
Humidity98.4 %100 % (12:50 am)93 % (2:20 am)
Barometer30.32 in30.39 in (3:20 pm)30.15 in (12:50 am)
Wind Speed1.7 mph3.5 mph (7:50 am)
Weather ElementAverage
Visibility3.3 mi
Wind DirectionENE (72.6 °)

Weather ElementTotal
Precipitation---
Heating Degree Days42.9 (Base 65)
Averaged from 47 records on February 13, 2013
WEATHER CONDITIONS BREAKOUT
WIND DIRECTION BREAKOUT
WEATHER BY HOUR - FEBRUARY 13, 2013
[ °C ]   °F
Local TimeTemperatureDewpointHumidityBarometerVisibilityWind DirectionWind SpeedGust SpeedPrecipitationEventsConditions
12:50 AM26.6 °F26.6 °F100 %30.15 in6.2 miWest (270°)1.2 mphOvercast
1:20 AM26.6 °F26.6 °F100 %30.18 in6.2 miCalmOvercast
1:50 AM26.6 °F26.6 °F100 %30.18 in6.2 miEast (100°)2.3 mphRainLight Freezing Rain
2:20 AM26.6 °F24.8 °F93 %30.18 in5.6 miCalmOvercast
2:50 AM21.2 °F21.2 °F100 %30.18 in0.1 miSE (140°)2.3 mphPartly Cloudy
3:20 AM23.0 °F23.0 °F100 %30.18 in1.9 miCalmMostly Cloudy
3:50 AM24.8 °F24.8 °F100 %30.21 in5.0 miESE (110°)1.2 mphOvercast
4:20 AM19.4 °F19.4 °F100 %30.21 in0.2 miCalmMostly Cloudy
4:50 AM19.4 °F17.6 °F93 %30.21 in0.1 miEast (100°)1.2 mphScattered Clouds
5:20 AM15.8 °F14.0 °F93 %30.24 in0.2 miSSE (150°)2.3 mphMostly Cloudy
5:50 AM17.6 °F15.8 °F93 %30.24 in0.3 miCalmOvercast
6:20 AM15.8 °F14.0 °F93 %30.24 in1.7 miESE (110°)2.3 mphOvercast
6:50 AM17.6 °F17.6 °F100 %30.27 in5.6 miCalmMostly Cloudy
7:20 AM19.4 °F19.4 °F100 %30.27 in5.6 miESE (120°)2.3 mphMostly Cloudy
7:50 AM23.0 °F23.0 °F100 %30.30 in5.0 miEast (100°)3.5 mphMostly Cloudy
8:20 AM23.0 °F23.0 °F100 %30.30 in5.0 miESE (120°)1.2 mphMostly Cloudy
8:50 AM24.8 °F23.0 °F93 %30.30 in5.0 miVariable1.2 mphMostly Cloudy
9:20 AM24.8 °F24.8 °F100 %30.33 in5.0 miVariable1.2 mphMostly Cloudy
9:50 AM24.8 °F24.8 °F100 %30.33 in5.0 miCalmMostly Cloudy
10:20 AM26.6 °F26.6 °F100 %30.33 in3.1 miVariable1.2 mphOvercast
10:50 AM26.6 °F26.6 °F100 %30.36 in1.6 miNNE (20°)2.3 mphMist
11:20 AM26.6 °F24.8 °F93 %30.36 inNE (40°)2.3 mphOvercast
11:50 AM24.8 °F24.8 °F100 %30.36 in5.0 miEast (90°)2.3 mphOvercast
12:20 PM24.8 °F24.8 °F100 %30.36 in5.0 miESE (110°)3.5 mphMostly Cloudy
12:50 PM26.6 °F24.8 °F93 %30.36 in5.6 miNE (40°)3.5 mphMostly Cloudy
1:20 PM24.8 °F24.8 °F100 %30.36 in6.2 miNE (50°)2.3 mphMostly Cloudy
1:50 PM24.8 °F24.8 °F100 %30.36 in6.2 miVariable2.3 mphSnowLight Snow Grains
2:20 PM26.6 °F26.6 °F100 %30.36 in2.2 miVariable1.2 mphSnowSnow Grains
2:50 PM26.6 °F26.6 °F100 %30.36 in1.9 miNNE (30°)1.2 mphSnowLight Snow
3:20 PM26.6 °F26.6 °F100 %30.39 in1.9 miNNE (30°)2.3 mphSnowLight Snow
3:50 PM26.6 °F26.6 °F100 %30.39 in1.2 miCalmSnowLight Snow
4:20 PM26.6 °F26.6 °F100 %30.39 in1.9 miNE (40°)2.3 mphSnowLight Snow
4:50 PM26.6 °F26.6 °F100 %30.39 in1.9 miVariable1.2 mphSnowLight Snow
5:20 PM26.6 °F26.6 °F100 %30.39 in2.2 miVariable1.2 mphSnowLight Snow
5:50 PM26.6 °F26.6 °F100 %30.39 in2.2 miNE (40°)2.3 mphSnowLight Snow
6:20 PM26.6 °F26.6 °F100 %30.39 in1.6 miNNW (330°)1.2 mphSnowSnow
6:50 PM26.6 °F26.6 °F100 %30.39 in2.5 miVariable2.3 mphSnowLight Snow
7:20 PM26.6 °F26.6 °F100 %30.39 in2.8 miNNE (20°)3.5 mphSnowLight Snow
7:50 PM26.6 °F26.6 °F100 %30.39 in2.8 miVariable2.3 mphSnowLight Snow
8:20 PM28.4 °F26.6 °F93 %30.39 in3.1 miVariable2.3 mphSnowLight Snow
8:50 PM28.4 °F26.6 °F93 %30.36 in3.1 miVariable1.2 mphSnowLight Snow
9:20 PM28.4 °F26.6 °F93 %30.36 in2.8 miVariable1.2 mphSnowLight Snow
9:50 PM28.4 °F28.4 °F100 %30.36 in3.7 miNorth (10°)1.2 mphSnowLight Snow
10:20 PM28.4 °F28.4 °F100 %30.39 in3.1 miWNW (290°)3.5 mphSnowLight Snow
10:50 PM28.4 °F28.4 °F100 %30.36 in1.6 miWNW (300°)2.3 mphSnowSnow Grains
11:20 PM28.4 °F28.4 °F100 %30.36 in3.1 miNW (320°)2.3 mphLight Freezing Drizzle
11:50 PM28.4 °F28.4 °F100 %30.36 in3.1 miNNW (330°)2.3 mphLight Freezing Drizzle
Hourly data recorded from ESSP, located miles away from Aby, Sweden







STORIES FROM OUR PARTNERS